EW7084 Weather Reports


Display with metric or nautical units.
time (UTC)temp
F
wind
direction
speed
MPH
gust
MPH
rain 1hr
in
rain 24hr
in
rain mn
in
humidity
%
barometer
mb
20260903194540 85 261 3.0 8.0 0.00 0.64 0.14 66 1013.1
20260903193037 84 292 3.0 7.0 0.00 0.64 0.14 66 1013.0
20260903191534 84 286 3.0 9.0 0.00 0.64 0.14 68 1013.4
20260903190031 83 281 2.0 6.0 0.00 0.64 0.14 70 1013.6
20260903184528 82 190 1.0 4.0 0.00 0.64 0.14 72 1013.9
20260903183026 82 273 1.0 6.0 0.00 0.64 0.14 73 1014.0
20260903181524 82 273 1.0 4.0 0.00 0.64 0.14 71 1014.1
20260903180032 82 290 3.0 9.0 0.00 0.64 0.14 71 1014.2
20260903174521 81 19 0.0 4.0 0.00 0.64 0.14 73 1014.2
20260903173019 81 155 1.0 7.0 0.00 0.64 0.14 72 1014.4
20260903171514 80 299 2.0 7.0 0.00 0.64 0.14 74 1014.4
20260903170012 79 263 1.0 6.0 0.00 0.64 0.14 75 1014.6
20260903164512 79 174 1.0 5.0 0.00 0.64 0.14 78 1014.6
20260903163001 78 147 1.0 7.0 0.00 0.64 0.14 78 1014.7
20260903161559 78 145 3.0 7.0 0.00 0.64 0.14 79 1014.9
20260903160057 77 306 2.0 5.0 0.00 0.64 0.14 80 1015.0
20260903153106 75 178 0.0 3.0 0.00 0.67 0.14 86 1015.3
20260903151548 74 176 0.0 2.0 0.00 0.67 0.14 88 1015.3
20260903150059 72 176 1.0 4.0 0.00 0.67 0.14 89 1015.2
20260903144544 72 176 2.0 4.0 0.00 0.71 0.14 91 1015.4
20260903143052 71 177 0.0 4.0 0.00 0.71 0.14 91 1015.5
20260903141543 71 178 1.0 4.0 0.00 0.71 0.14 92 1015.5
20260903140037 70 178 2.0 4.0 0.00 0.71 0.14 92 1015.4
20260903134539 71 188 3.0 7.0 0.00 0.71 0.14 93 1015.4
20260903133036 71 161 1.0 5.0 0.00 0.71 0.14 94 1015.2
20260903131535 70 161 0.0 2.0 0.00 0.71 0.14 94 1015.2
20260903130033 70 161 0.0 2.0 0.00 0.71 0.14 94 1015.4
20260903124533 69 161 0.0 2.0 0.00 0.71 0.14 94 1015.4
20260903123030 68 161 2.0 5.0 0.00 0.71 0.14 94 1015.4
20260903121529 68 161 1.0 5.0 0.00 0.71 0.14 94 1015.2
20260903120033 67 161 2.0 4.0 0.00 0.71 0.14 94 1014.9
20260903114531 67 161 0.0 2.0 0.00 0.71 0.14 94 1015.0
20260903113030 67 161 0.0 0.0 0.00 0.71 0.14 94 1014.9
20260903111532 67 161 0.0 2.0 0.00 0.71 0.14 94 1014.6
20260903110027 67 161 0.0 2.0 0.00 0.71 0.14 94 1014.6
20260903104527 67 161 0.0 5.0 0.00 0.71 0.14 94 1014.5
20260903103025 67 161 1.0 5.0 0.00 0.71 0.14 94 1014.6
20260903101527 67 161 4.0 7.0 0.00 0.71 0.14 94 1014.8
20260903100023 66 146 0.0 2.0 0.00 0.71 0.14 94 1014.9
20260903094523 66 146 0.0 3.0 0.00 0.71 0.14 94 1015.1
20260903093032 66 146 0.0 3.0 0.00 0.71 0.14 94 1015.2
20260903091533 66 146 0.0 2.0 0.00 0.71 0.14 94 1015.3
20260903090025 66 146 0.0 2.0 0.00 0.71 0.14 94 1015.1
20260903084539 66 146 0.0 2.0 0.00 0.71 0.14 93 1014.7
20260903081520 66 146 0.0 2.0 0.00 0.71 0.14 93 1014.9
20260903080019 66 146 0.0 2.0 0.00 0.71 0.14 93 1015.1
20260903074519 66 146 1.0 2.0 0.00 0.71 0.14 93 1015.0
20260903073018 66 146 0.0 1.0 0.01 0.71 0.14 93 1015.0
20260903071517 66 146 1.0 3.0 0.01 0.71 0.14 93 1014.7
20260903070023 66 146 1.0 3.0 0.01 0.71 0.14 93 1014.8
20260903064515 66 146 0.0 2.0 0.01 0.71 0.14 93 1015.2
20260903063016 66 146 0.0 3.0 0.00 0.70 0.13 93 1014.8
20260903061515 66 155 0.0 5.0 0.00 0.70 0.13 93 1015.2
20260903060012 66 156 2.0 7.0 0.00 0.70 0.13 93 1015.6
20260903054514 66 176 6.0 8.0 0.01 0.70 0.13 93 1015.4
20260903053008 67 163 4.0 8.0 0.04 0.70 0.13 93 1015.5
20260903051506 67 162 3.0 8.0 0.08 0.70 0.13 93 1015.6
20260903050019 67 155 2.0 7.0 0.12 0.70 0.13 93 1015.5
20260903044504 67 147 5.0 12.0 0.17 0.69 0.12 93 1015.6
20260903043100 68 114 2.0 6.0 0.16 0.66 0.09 93 1016.6
20260903041556 68 166 5.0 12.0 0.15 0.62 0.05 92 1017.7
20260903040054 69 157 3.0 6.0 0.16 0.57 0.01 93 1017.8
20260903034552 69 157 3.0 7.0 0.15 0.52 0.52 93 1017.0
20260903033053 69 156 5.0 8.0 0.19 0.50 0.50 92 1016.1
20260903031552 69 157 3.0 7.0 0.19 0.47 0.47 92 1016.2
20260903030100 70 156 3.0 8.0 0.32 0.42 0.42 92 1016.5
20260903024551 70 157 3.0 8.0 0.28 0.37 0.37 92 1017.7
20260903023048 70 169 6.0 12.0 0.22 0.31 0.31 92 1018.5
20260903021548 70 346 0.0 9.0 0.20 0.27 0.27 91 1018.3
20260903020101 70 171 4.0 9.0 0.03 0.10 0.10 91 1017.9
20260903014545 71 150 3.0 8.0 0.02 0.09 0.09 90 1016.5
20260903013045 71 163 2.0 8.0 0.02 0.09 0.09 89 1017.1
20260903011645 71 161 3.0 6.0 0.00 0.07 0.07 89 1017.1
20260903010044 72 161 2.0 7.0 0.00 0.07 0.07 88 1016.5
20260903004543 72 161 3.0 8.0 0.00 0.07 0.07 88 1015.8
20260903003044 72 159 3.0 8.0 0.00 0.07 0.07 88 1015.3
20260903001555 72 163 2.0 9.0 0.00 0.07 0.07 87 1016.1
20260903000044 72 163 0.0 5.0 0.00 0.07 0.07 87 1016.1
20260902234540 72 89 2.0 7.0 0.00 0.07 0.07 87 1016.4
20260902233038 73 143 3.0 5.0 0.00 0.07 0.07 87 1016.2
20260902231540 73 169 2.0 7.0 0.00 0.07 0.07 87 1016.1
20260902230037 73 154 1.0 6.0 0.00 0.07 0.07 87 1015.6
20260902224536 73 155 3.0 9.0 0.00 0.07 0.07 87 1015.7
20260902223035 73 161 3.0 9.0 0.00 0.07 0.07 87 1015.7
20260902221550 73 157 2.0 9.0 0.00 0.07 0.07 88 1016.0
20260902220032 73 162 2.0 9.0 0.00 0.07 0.07 88 1016.1
20260902214532 72 162 4.0 8.0 0.00 0.07 0.07 89 1016.6
20260902213033 72 156 5.0 10.0 0.00 0.07 0.07 88 1016.7
20260902211529 72 144 4.0 12.0 0.00 0.07 0.07 88 1016.6
20260902210031 73 157 5.0 8.0 0.00 0.07 0.07 88 1016.7
20260902204528 73 163 4.0 13.0 0.00 0.07 0.07 88 1016.5
20260902203030 73 164 2.0 7.0 0.00 0.07 0.07 89 1016.5
20260902201536 73 153 3.0 10.0 0.00 0.07 0.07 88 1016.4
20260902200024 73 162 4.0 8.0 0.00 0.07 0.07 88 1016.9